Find OneWeb SL0122

NORAD ID: 47291 Int'l Des: 2020-100 Owner: ONEWEB Country: UK Constellation: oneweb operational
LEOCIRCULARPOLARONEWEB_TYPE

Current View

Loading 3D Globe...

About OneWeb SL0122

Description loading...

Upcoming Passes

Passes for default location (London). Set your location on the main map for personalized predictions.

Altitude History

Loading altitude history...

Two-Line Element Set

1 47291U 20100AK 26149.58292023 -.00000186 00000-0 -55161-3 0 9997
2 47291 87.8948 354.3708 0001748 89.7001 270.4327 13.12441872262327
Epoch: May 29, 2026 • Age: 15 hours

Current Status

Altitude 1218.0 km
Velocity 7.25 km/s
Sub-Earth Point 37.32°N, 35.88°E
Launch Date Dec 18, 2020
Age 5.4 years
Type internet

Technical Details

Classification Payload
Mass 148.00 kg
Dry Mass 140.00 kg
Total Mass 148.00 kg
Length 1.30 m
Diameter 1.00 m
Span 5.00 m
Shape Trapezoid+2 pan
Manufacturer ONEWUS
Bus Type ARROW
Phase Status In Orbit
Owner/State ONEWEB/UK

Most Searched